Lapse_Rate
7.4 7.4 7.5 7.4 7.3 7.2 7.1 7.2 7.4 7.2 7.1 7.0 7.0 7.0 6.9 6.7 6.6 6.4 6.4 6.4 6.3 6.3 6.3 6.2 6.1 6.1 6.0 5.9 5.9 5.9 5.8 5.8
6.8 7.3 7.4 7.2 7.1 7.1 7.1 7.2 7.4 7.2 7.1 7.1 7.0 6.9 6.9 6.8 6.5 6.5 6.4 6.4 6.3 6.2 6.1 6.0 5.9 5.9 5.8 5.8 5.8 5.8 5.7 5.7
6.9 7.1 7.3 7.1 7.2 7.1 7.1 7.2 7.2 7.2 7.0 6.8 6.9 6.8 6.8 6.7 6.6 6.4 6.3 6.2 6.0 5.9 5.9 5.9 5.8 5.7 5.7 5.5 5.6 5.7 5.8 6.0
7.0 7.1 7.3 7.2 7.2 7.2 7.2 7.3 7.1 6.9 7.0 6.9 6.9 6.9 6.6 6.5 6.4 6.3 6.1 5.9 5.9 5.9 5.8 5.9 5.7 5.4 5.4 5.5 5.6 5.7 5.8 5.6
7.2 7.3 7.4 7.4 7.3 7.1 7.2 7.3 7.3 7.1 6.9 7.0 7.0 6.9 6.7 6.7 6.5 6.2 5.9 5.9 5.8 5.8 5.7 5.6 5.4 5.3 5.3 5.5 5.5 5.4 5.2 5.0
7.2 7.6 7.6 7.6 7.4 7.2 7.4 7.4 7.4 7.4 7.2 7.3 7.0 6.7 6.7 6.5 6.3 6.1 6.0 5.9 5.8 5.7 5.7 5.5 5.4 5.5 5.4 5.4 5.4 5.2 5.1 5.1
7.2 7.4 7.5 7.7 7.6 7.4 7.6 7.6 7.7 7.6 7.6 7.4 7.2 6.9 6.6 6.2 5.9 5.8 5.8 5.8 5.8 5.6 5.4 5.3 5.5 5.3 5.3 5.3 5.4 5.3 5.0 4.5
6.9 7.1 7.4 7.6 7.7 7.7 7.6 7.7 7.7 7.7 7.5 7.3 7.0 6.7 6.3 5.9 5.7 5.5 5.5 5.4 5.3 5.2 5.2 5.4 5.2 5.1 5.0 5.0 5.2 4.6 4.3 4.1
6.9 6.8 7.1 7.3 7.6 7.6 7.5 7.5 7.5 7.4 7.2 6.8 6.5 6.3 6.1 5.7 5.4 5.4 5.5 5.4 5.2 5.0 5.1 4.9 5.0 4.9 5.0 4.9 4.8 4.5 4.5 4.3
6.7 6.6 6.7 6.9 7.2 7.3 7.4 7.4 7.2 6.9 6.5 6.2 6.1 5.9 5.7 5.4 5.4 5.5 5.3 5.1 4.9 4.9 4.7 4.7 4.9 4.9 4.9 5.0 4.6 4.4 4.0 3.9
6.7 6.7 6.5 6.6 6.7 6.8 6.8 6.7 6.5 6.2 6.1 5.8 5.7 5.6 5.3 5.3 5.4 5.2 5.0 4.8 4.9 4.7 4.8 4.7 4.8 5.0 4.8 4.8 4.4 4.2 4.1 4.1
6.6 6.7 6.6 6.4 6.4 6.6 6.6 6.3 6.1 5.7 5.4 5.5 5.5 5.3 5.3 5.2 5.0 5.0 4.9 4.8 4.8 4.8 4.6 4.6 4.8 4.7 4.5 4.3 4.2 4.3 4.3 4.2
7.0 6.7 6.6 6.5 6.5 6.4 6.2 6.0 5.5 5.3 5.2 5.1 5.1 5.2 5.2 5.0 4.9 4.9 4.8 4.7 4.8 4.4 4.5 4.7 4.6 4.5 4.4 4.4 4.2 4.3 4.3 4.5
7.8 7.5 7.1 6.8 6.6 6.5 6.3 5.8 5.4 5.1 5.0 5.1 5.0 5.1 5.1 4.9 4.8 4.7 4.7 4.6 4.5 4.4 4.5 4.5 4.5 4.4 4.5 4.3 4.4 4.5 4.5 4.8
7.8 7.7 7.3 7.1 6.8 6.6 6.4 5.7 5.2 4.9 4.8 4.9 5.0 4.9 4.9 4.8 4.8 4.8 4.7 4.5 4.3 4.4 4.5 4.4 4.4 4.3 4.3 4.4 4.5 4.7 4.8 5.1
7.6 7.5 7.4 7.4 7.1 6.7 6.0 5.6 5.3 5.2 5.1 5.1 4.9 4.8 4.8 4.8 4.7 4.7 4.5 4.2 4.2 4.4 4.4 4.5 4.4 4.3 4.3 4.4 4.7 4.8 5.2 5.1
7.4 7.3 7.2 7.0 6.8 6.8 6.4 6.0 5.5 5.2 5.1 4.9 4.8 4.8 4.7 4.5 4.6 4.5 4.1 4.1 4.3 4.4 4.6 4.4 4.3 4.1 4.4 4.6 4.6 5.0 5.2 5.2
7.3 7.4 7.2 6.7 6.5 6.6 6.6 6.3 5.8 5.2 4.9 4.8 4.6 4.5 4.5 4.7 4.6 4.2 4.2 4.2 4.4 4.6 4.5 4.4 4.3 4.3 4.6 4.5 4.9 5.2 5.1 5.6
6.7 6.8 6.6 6.6 6.7 6.5 6.2 6.0 5.3 5.0 4.8 4.6 4.4 4.4 4.7 4.6 4.4 4.4 4.0 4.5 4.7 4.6 4.4 4.3 4.4 4.4 4.3 4.7 5.2 5.1 5.3 6.1
Wind_Speed
15 15 13 13 14 16 17 15 16 16 9 9 8 8 9 11 11 11 10 10 9 7 6 4 0 0 1 3 5 5 6 7
15 13 13 13 14 17 18 17 17 12 9 10 9 8 9 8 10 11 10 9 7 5 4 3 2 3 4 4 5 6 7 7
17 17 15 15 16 16 18 19 19 14 12 10 10 9 8 8 10 10 9 8 7 6 4 3 3 3 4 5 6 6 5 7
21 20 18 17 17 18 19 19 18 15 16 10 10 9 8 7 7 7 7 8 7 6 5 5 4 3 4 4 5 6 6 6
22 22 20 19 16 15 18 15 19 13 18 15 18 11 11 8 8 7 7 8 7 6 5 4 4 4 3 3 4 5 5 7
24 24 22 19 17 16 14 16 17 18 11 16 13 13 9 9 8 10 8 7 7 6 4 4 3 2 3 3 5 5 6 7
22 21 20 18 16 16 15 17 14 14 15 13 11 15 14 10 9 8 7 6 5 5 3 1 1 2 3 5 6 7 7 8
20 23 21 20 20 19 15 15 15 13 12 11 15 14 13 12 11 7 7 5 4 4 1 0 2 4 6 7 6 8 9 8
21 23 21 20 20 21 19 18 16 14 12 16 14 13 9 8 8 7 5 4 3 2 0 2 4 5 6 6 6 7 8 8
21 21 21 19 20 21 19 17 15 15 16 13 13 12 12 10 10 7 5 4 3 2 1 2 3 3 4 5 5 7 8 9
18 20 20 19 20 20 17 17 17 16 16 14 12 12 11 11 9 8 6 5 3 2 2 2 4 5 6 6 7 8 9 8
17 18 19 20 21 21 20 17 19 18 16 15 14 12 12 10 8 7 6 4 2 1 2 4 5 6 6 7 8 8 9 10
17 19 20 21 22 22 21 19 19 17 15 15 13 12 11 10 8 7 4 3 1 2 4 5 4 4 5 6 7 7 8 10
17 20 22 22 22 22 21 20 19 17 16 15 14 12 11 9 8 5 3 2 2 4 4 3 3 3 4 5 7 8 9 10
18 19 21 22 22 22 21 20 18 17 16 15 14 12 10 8 6 5 4 3 4 4 2 2 2 3 4 5 7 8 10 10
20 21 22 23 23 22 21 20 19 18 17 15 13 12 10 8 6 5 4 4 3 3 2 1 1 2 3 7 8 10 11 12
21 21 23 25 24 23 21 20 19 18 16 15 13 11 9 8 6 5 5 3 2 2 2 1 2 2 8 5 9 10 11 11
23 24 24 24 25 24 23 21 19 17 16 14 12 11 10 8 6 6 4 3 2 1 1 2 4 4 10 9 9 10 10 10
21 20 21 23 23 22 21 20 19 17 15 14 12 11 9 8 7 5 3 2 0 1 2 3 4 5 8 10 11 10 10 10
Wind_Direction
206 202 201 192 181 181 174 170 167 167 142 138 128 127 125 124 125 124 128 111 108 111 109 107 210 263 347 348 332 341 327 332
203 201 190 186 180 178 173 171 169 158 142 148 139 139 141 133 125 125 120 113 107 104 99 101 29 23 17 10 348 342 331 345
201 200 194 191 184 169 179 177 167 169 158 159 155 152 146 133 127 119 116 118 108 105 100 83 45 59 38 16 3 343 340 357
207 202 196 190 186 179 183 177 170 175 156 144 142 132 141 138 137 134 125 127 125 116 103 76 63 23 35 19 15 7 341 332
214 201 194 190 188 184 182 175 167 165 158 157 163 163 160 151 150 140 144 138 126 114 101 87 66 50 41 19 360 334 324 322
213 202 195 187 180 177 172 170 162 164 160 165 164 164 145 153 151 151 147 146 144 137 129 110 85 15 18 337 318 314 316 321
216 203 191 183 173 166 162 164 154 154 154 157 162 159 157 156 158 158 158 156 153 137 130 123 34 354 335 309 305 298 304 300
205 199 190 180 176 164 156 151 148 147 157 154 159 157 156 156 158 157 152 152 160 139 138 321 318 323 300 296 297 291 287 291
205 196 194 183 173 160 157 151 148 150 152 155 151 150 152 146 149 146 150 154 153 128 294 321 317 301 298 298 284 289 297 289
205 192 194 179 171 161 158 148 150 153 155 150 149 149 148 146 143 151 146 138 136 139 36 350 306 310 309 306 296 297 297 297
199 192 184 179 171 160 158 156 154 154 153 153 149 144 143 145 147 143 136 122 124 97 46 317 296 297 301 303 297 294 301 298
195 190 179 180 172 165 165 164 160 161 157 153 148 147 144 141 134 127 119 122 92 28 291 277 288 301 309 302 297 299 300 303
186 183 180 181 177 170 169 167 166 162 156 150 143 141 139 135 130 126 126 119 96 265 258 273 291 306 310 309 301 318 311 307
180 179 184 183 179 173 170 169 165 161 155 148 145 144 141 136 133 131 132 161 207 238 253 277 300 311 311 310 321 320 311 308
178 182 185 186 181 174 169 169 162 158 155 152 149 147 143 138 137 146 164 177 221 227 248 272 273 306 323 337 339 331 314 302
187 186 187 185 180 173 170 163 162 159 156 152 148 142 139 138 148 156 166 200 214 228 232 208 307 332 26 353 342 321 307 307
195 189 187 183 179 173 167 164 161 158 155 151 144 143 145 150 152 163 175 186 179 202 176 344 320 326 71 9 329 316 307 302
195 193 188 181 179 172 168 161 156 155 150 144 147 148 148 152 159 168 154 151 164 151 250 307 324 339 37 356 316 314 311 306
195 188 184 180 175 168 158 154 153 150 148 147 149 149 148 157 166 140 141 163 227 7 351 336 335 325 346 312 310 313 313 308